Preview of NWS' New Version of Forecast
This preview is not operational and should not be used for support decisions.

Regional Weather Roundup (RWR)

Issued by National Weather Service (NWS)

                            
000
ASUS44 KJAN 211110
RWRMS 

MISSISSIPPI HOURLY WEATHER ROUNDUP
NATIONAL WEATHER SERVICE JACKSON MS
600 AM CDT SUN APR 21 2019

NOTE: "FAIR: INDICATES FEW OR NO CLOUDS BELOW 12,000 FEET WITH NO
SIGNIFICANT WEATHER AND/OR OBSTRUCTIONS TO VISIBILITY.

MSZ001>002-007>008-010>013-018>021-025>028-034>036-211200-
NORTHWEST MISSISSIPPI
  
CITY           SKY/WX    TMP DP  RH WIND       PRES   REMARKS
BATESVILLE       N/A     41  41 100 CALM      30.05R                  
CLARKSDALE     CLEAR     48  46  93 CALM      30.04R                  
CLEVELAND      FAIR      50  45  83 S5        30.04R                  
GREENWOOD      FAIR      45  41  86 CALM      30.06R                  
GREENVILLE     FAIR      50  45  83 S6        30.04R                  
OLIVE BRANCH   CLEAR     45  43  93 S6        30.03R FOG              
OXFORD         FAIR      41  39  93 CALM      30.06R                  
TUNICA           N/A     45  43  93 S6        30.04R                  
WINONA         FAIR      41  41 100 CALM      30.07R                  
$$

MSZ003>006-009-014>017-022>024-029>033-037>039-211200-
NORTHEAST MISSISSIPPI
  
CITY           SKY/WX    TMP DP  RH WIND       PRES   REMARKS
ABERDEEN       FAIR      39  39 100 CALM      30.08R                  
COLUMBUS AFB   FAIR      41  39  93 SE5       30.07R                  
CORINTH        FAIR      41  39  93 S3        30.05S                  
GOLDN TRIANGLE FAIR      43  41  93 CALM      30.08R                  
STARKVILLE     FAIR      39  37  93 CALM      30.08R                  
TUPELO         FAIR      44  40  85 CALM      30.06R                  
$$

MSZ040-058-211200-
CENTRAL MISSISSIPPI
  
CITY           SKY/WX    TMP DP  RH WIND       PRES   REMARKS
JACKSON INTL   FAIR      45  40  82 S5        30.08R                  
JACKSON HAWKNS FAIR      45  44  97 CALM      30.08R                  
MADISON        FAIR      43  43 100 CALM      30.08R                  
MERIDIAN KEY   FAIR      43  39  86 CALM      30.10R                  
MERIDIAN NAS   FAIR      42  38  85 CALM      30.09R                  
RAYMOND          N/A     43  43 100 CALM      30.08R                  
VICKSBURG VKS  SUNNY     48  45  87 CALM      30.07R                  
$$

MSZ059>079-211200-
SOUTH MISSISSIPPI
  
CITY           SKY/WX    TMP DP  RH WIND       PRES   REMARKS
HATTIESBURG    FAIR      42  40  92 CALM      30.11R                  
LAUREL         SUNNY     42  42  98 NW3       30.10R                  
MCCOMB         FAIR      45  41  86 CALM      30.08S                  
NATCHEZ        FAIR      47  45  93 S3        30.08R                  
PINE BELT      FAIR      42  41  96 CALM      30.11R                  
$$

MSZ080>082-211200-
COASTAL MISSISSIPPI
  
CITY           SKY/WX    TMP DP  RH WIND       PRES   REMARKS
BILOXI         FAIR      48  42  79 CALM      30.10R                  
PASCAGOULA     FAIR      44  40  85 CALM      30.10R                  
GULFPORT       FAIR      46  43  89 CALM      30.09R                  
$$

LAZ007>009-015>016-023>026-211200-
NORTHEAST LOUISIANA
  
CITY           SKY/WX    TMP DP  RH WIND       PRES   REMARKS
BASTROP        FAIR      46  45  98 CALM      30.05R                  
TALLULAH/VBURG FAIR      52  47  83 CALM      30.07R                  
VIDALIA        FAIR      51  49  95 SE3       30.07R                  
$$